Location: Boiro
(42.6475°N, 8.8834°W)
Time: 06:29:28
(UTC+01:00)

UNISAT 6 - Visible Passes

Search period start: 25 January 2022 00:00
Search period end: 04 February 2022 00:00
Orbit: 607 x 686 km, 97.7° (Epoch: 24 January)

Date Brightness Start Highest point End Pass type
(mag) Time Alt. Az. Time Alt. Az. Time Alt. Az.
25 Jan ? 06:21:43 10° ESE 06:25:03 20° ENE 06:28:26 10° NNE visible
25 Jan ? 07:56:58 10° S 08:01:22 45° W 08:05:53 10° NNW visible
25 Jan ? 19:47:26 10° NNE 19:51:45 37° E 19:55:57 10° SSE visible
25 Jan ? 21:24:31 10° NNW 21:28:11 24° WNW 21:31:48 10° WSW visible
26 Jan ? 06:46:11 10° SE 06:50:19 34° ENE 06:54:33 10° N visible
26 Jan ? 08:23:14 10° SSW 08:27:01 25° W 08:30:54 10° NW visible
26 Jan ? 20:12:42 10° NNE 20:17:20 69° E 20:21:50 10° S visible
26 Jan ? 21:51:03 10° NNW 21:53:23 14° WNW 21:55:42 10° W visible
27 Jan ? 07:11:09 10° SSE 07:15:42 61° ENE 07:20:21 10° N visible
27 Jan ? 20:38:13 10° N 20:42:48 65° WNW 20:47:16 10° SSW visible
28 Jan ? 06:02:54 10° E 06:05:09 13° ENE 06:07:23 10° NNE visible
28 Jan ? 07:36:34 10° S 07:41:10 73° WSW 07:45:52 10° NNW visible
28 Jan ? 19:27:45 10° NE 19:31:26 23° E 19:35:02 10° SSE visible
28 Jan ? 21:03:59 10° N 21:08:11 35° WNW 21:12:17 10° SW visible
29 Jan ? 06:26:44 10° ESE 06:30:20 23° ENE 06:33:58 10° NNE visible
29 Jan ? 08:02:24 10° SSW 08:06:44 39° W 08:11:10 10° NNW visible
29 Jan ? 19:52:43 10° NNE 19:57:06 42° E 20:01:21 10° S visible
29 Jan ? 21:30:04 10° NNW 21:33:27 21° WNW 21:36:47 10° WSW visible
30 Jan ? 06:51:20 10° SE 06:55:38 39° ENE 07:00:00 10° N visible
30 Jan ? 20:18:02 10° NNE 20:22:40 79° ESE 20:27:08 10° S visible
30 Jan ? 21:56:55 10° NW 21:58:37 12° WNW 22:00:19 10° W visible
31 Jan ? 07:16:24 10° SSE 07:21:01 71° ENE 07:25:42 10° N visible
31 Jan ? 20:43:36 10° N 20:48:06 56° WNW 20:52:28 10° SSW visible
01 Feb ? 06:07:43 10° E 06:10:24 15° ENE 06:13:05 10° NNE visible
01 Feb ? 07:41:54 10° S 07:46:31 64° W 07:51:11 10° NNW visible
01 Feb ? 19:32:56 10° NE 19:36:48 26° E 19:40:32 10° SSE visible
01 Feb ? 21:09:26 10° N 21:13:27 31° WNW 21:17:22 10° SW visible
02 Feb ? 06:31:46 10° ESE 06:35:36 26° ENE 06:39:28 10° NNE visible
02 Feb ? 08:07:51 10° SSW 08:12:06 35° W 08:16:24 10° NNW visible
02 Feb ? 19:58:00 10° NNE 20:02:25 48° E 20:06:43 10° S visible
02 Feb ? 21:35:38 10° NNW 21:38:41 18° WNW 21:41:42 10° WSW visible
03 Feb ? 06:56:30 10° SE 07:00:56 45° ENE 07:05:24 10° N visible
03 Feb ? 20:23:22 10° NNE 20:27:57 89° W 20:32:23 10° SSW visible
03 Feb ? 22:03:15 10° NW 22:03:49 10° WNW 22:04:24 10° WNW visible
